Terminal Aerodrome Forecast
Issued by NWS

Home | Current Version | Previous Version | Text Only | Print | Product List | Glossary On
Versions: 1 2 3 4 5 6 7 8 9 10 11 12 13 14 15 16 17 18 19 20
000
FTUS42 KFFC 311120
TAFPDK
TAF
KPDK 311120Z 3112/0112 06005KT P6SM OVC015
      TEMPO 3112/3113 OVC010
     FM311400 05005KT P6SM BKN015
     FM311600 VRB04KT P6SM BKN025
     FM311900 VRB04KT P6SM SCT040
     FM010000 00000KT P6SM SCT045 SCT250=

USA.gov is the U.S. government's official web portal to all federal, state and local government web resources and services.